DW8913 Weather Reports


Display with metric or nautical units.
time (UTC)temp
F
wind
direction
speed
MPH
gust
MPH
rain 1hr
in
rain 24hr
in
rain mn
in
humidity
%
barometer
mb
20260502230104 58 230 0.0 1.0 0.00 0.00 0.00 49 1009.8
20260502224529 59 173 0.0 3.0 0.00 0.00 0.00 48 1009.8
20260502223108 59 300 0.0 2.0 0.00 0.00 0.00 47 1009.8
20260502221542 59 53 0.0 2.0 0.00 0.00 0.00 46 1009.6
20260502220008 60 143 0.0 2.0 0.00 0.00 0.00 46 1009.7
20260502214558 59 41 1.0 5.0 0.00 0.00 0.00 46 1009.8
20260502213022 60 330 0.0 5.0 0.00 0.00 0.00 46 1009.7
20260502211603 59 72 0.0 1.0 0.00 0.00 0.00 54 1009.6
20260502210026 58 58 0.0 1.0 0.00 0.00 0.00 63 1009.5
20260502204607 59 77 0.0 3.0 0.00 0.00 0.00 65 1009.4
20260502203036 59 112 0.0 3.0 0.00 0.00 0.00 63 1009.5
20260502201503 60 23 0.0 4.0 0.00 0.00 0.00 62 1009.4
20260502200049 60 19 0.0 3.0 0.00 0.00 0.00 57 1009.5
20260502194523 60 169 1.0 4.0 0.00 0.00 0.00 60 1009.9
20260502193100 62 38 0.0 2.0 0.00 0.00 0.00 51 1010.1
20260502191523 61 110 0.0 1.0 0.00 0.00 0.00 61 1010.2
20260502184541 59 27 1.0 5.0 0.00 0.00 0.00 66 1010.5
20260502183106 57 43 0.0 4.0 0.00 0.00 0.00 70 1010.8
20260502181536 58 255 1.0 4.0 0.00 0.00 0.00 69 1010.9
20260502163040 58 212 0.0 2.0 0.00 0.00 0.00 59 1011.6
20260502161538 59 219 0.0 1.0 0.00 0.00 0.00 61 1011.8
20260502151537 57 51 0.0 4.0 0.00 0.00 0.00 64 1011.9
20260502123107 54 18 0.0 2.0 0.00 0.00 0.00 78 1012.1
20260502121531 53 8 0.0 3.0 0.00 0.00 0.00 80 1012.2
20260502120111 52 4 0.0 2.0 0.00 0.00 0.00 82 1012.1
20260502114549 52 255 0.0 2.0 0.00 0.00 0.00 84 1012.0
20260502113017 51 254 0.0 1.0 0.00 0.00 0.00 86 1012.0
20260502111557 50 205 0.0 0.0 0.00 0.00 0.00 87 1012.1
20260502110026 50 327 0.0 0.0 0.00 0.00 0.00 87 1012.1
20260502104607 50 327 0.0 0.0 0.00 0.00 0.00 86 1011.9
20260502103033 49 327 0.0 0.0 0.00 0.00 0.00 85 1011.7
20260502101502 49 327 0.0 0.0 0.00 0.00 0.00 85 1011.3
20260502100107 49 328 0.0 0.0 0.00 0.00 0.00 86 1011.3
20260502091527 49 327 0.0 0.0 0.00 0.00 0.00 86 1011.5
20260502090106 49 327 0.0 0.0 0.00 0.00 0.00 86 1011.6
20260502070047 51 161 0.0 3.0 0.00 0.00 0.00 83 1011.5
20260502064506 51 96 1.0 4.0 0.00 0.00 0.00 84 1011.8
20260502063052 51 95 1.0 4.0 0.00 0.00 0.00 85 1011.9
20260502061520 51 175 2.0 6.0 0.00 0.00 0.00 85 1011.9
20260502054540 51 360 1.0 6.0 0.00 0.00 0.00 85 1012.2
20260502053004 50 146 0.0 4.0 0.00 0.00 0.00 85 1012.5
20260502051546 50 52 1.0 4.0 0.00 0.00 0.00 84 1012.7
20260502050021 50 77 0.0 6.0 0.00 0.00 0.00 83 1012.8
20260502044608 50 107 0.0 5.0 0.00 0.00 0.00 83 1012.8
20260502043036 51 121 2.0 7.0 0.00 0.00 0.00 83 1012.6
20260502041508 51 125 1.0 8.0 0.00 0.00 0.00 82 1012.7
20260502040053 51 136 2.0 7.0 0.00 0.00 0.00 82 1012.6
20260502034524 51 88 2.0 7.0 0.00 0.00 0.00 82 1012.3
20260502033106 51 192 2.0 9.0 0.00 0.00 0.00 82 1012.1
20260502031538 51 110 3.0 8.0 0.00 0.00 0.00 82 1012.2
20260502030009 51 79 2.0 8.0 0.00 0.00 0.00 82 1012.4
20260502024549 51 126 2.0 6.0 0.00 0.00 0.00 82 1012.7
20260502023014 51 117 2.0 7.0 0.00 0.00 0.00 81 1013.1
20260502021600 51 150 1.0 8.0 0.00 0.00 0.00 81 1013.0
20260502020038 51 115 1.0 6.0 0.00 0.00 0.00 81 1013.0
20260502014505 51 163 2.0 7.0 0.00 0.01 0.00 82 1012.8
20260502013047 51 184 2.0 6.0 0.00 0.01 0.00 83 1012.7
20260502011516 51 63 2.0 8.0 0.00 0.01 0.00 83 1012.6
20260502010101 51 155 2.0 6.0 0.00 0.01 0.00 82 1012.5
20260502004532 51 215 3.0 6.0 0.00 0.01 0.00 81 1012.4
20260502003007 51 161 1.0 7.0 0.00 0.01 0.00 80 1012.3
20260502001556 51 111 0.0 7.0 0.00 0.01 0.00 79 1012.3
20260502000025 52 201 2.0 7.0 0.00 0.01 0.00 77 1012.3
20260501234612 52 84 2.0 7.0 0.00 0.01 0.00 75 1012.0
20260501233040 52 70 2.0 7.0 0.00 0.01 0.00 75 1011.8
20260501231513 53 150 2.0 7.0 0.00 0.01 0.00 74 1011.7